Change the Weather History Date:

Tuesday, February 12, 2013

  Actual Average Record
Temperature  
Mean Temperature 36 °F -  
Max Temperature 41 °F 34 °F 58 °F (1981)
Min Temperature 31 °F 11 °F -19 °F (1962)
Degree Days  
Heating Degree Days 29    
Moisture  
Dew Point 27 °F    
Average Humidity 68    
Maximum Humidity 96    
Minimum Humidity 52    
Precipitation  
Precipitation 0.23 in - - ()
Sea Level Pressure  
Sea Level Pressure 30.46 in    
Wind  
Wind Speed 6 mph (West)    
Max Wind Speed 14 mph    
Max Gust Speed 25 mph    
Visibility 10 miles    
Events      
Averages and records for this station are not official NWS values.
T = Trace of Precipitation, MM = Missing Value Source: NWS Daily Summary

Daily Weather History Graph

Daily Weather History Graph

Search for Another Location

Airport or City:

Trip Planner

Search our weather history database for the weather conditions in past years. The results will help you decide how hot, cold, wet, or windy it might be!

Date:

Astronomy

Feb. 12, 2013 Rise Set
Actual Time 6:47 AM EST 5:14 PM EST
Civil Twilight 6:17 AM EST 5:43 PM EST
Nautical Twilight 5:44 AM EST 6:16 PM EST
Astronomical Twilight 5:11 AM EST 6:49 PM EST
Moon 7:37 AM EST (2/12) 8:17 PM EST (2/12)
Length of Visible Light 11h 25m
Length of Day
10h 27m
Waxing Crescent, 7% of the Moon is Illuminated
Feb 12
Waxing Crescent
Feb 17
First Quarter
Feb 25
Full
Mar 4
Last Quarter
Mar 11
New

Hourly Weather History & Observations

Time (EST) Temp. Windchill Dew Point Humidity Pressure Visibility Wind Dir Wind Speed Gust Speed Precip Events Conditions
12:51 AM 31.1 °F 27.7 °F 30.0 °F 96% 30.35 in 4.0 mi ESE 3.5 mph - N/A   Scattered Clouds
1:51 AM 36.0 °F 29.0 °F 32.0 °F 86% 30.38 in 10.0 mi West 9.2 mph - N/A   Scattered Clouds
2:51 AM 34.0 °F 31.0 °F 30.0 °F 85% 30.38 in 10.0 mi SW 3.5 mph - N/A   Clear
3:51 AM 32.9 °F - 29.1 °F 86% 30.38 in 10.0 mi Calm Calm - N/A   Scattered Clouds
4:51 AM 32.0 °F 27.5 °F 29.1 °F 89% 30.39 in 10.0 mi SW 4.6 mph - N/A   Mostly Cloudy
5:51 AM 34.0 °F - 28.0 °F 79% 30.40 in 10.0 mi Calm Calm - N/A   Mostly Cloudy
6:51 AM 34.9 °F 30.8 °F 28.0 °F 76% 30.41 in 10.0 mi Variable 4.6 mph - N/A   Overcast
7:51 AM 36.9 °F 31.4 °F 26.1 °F 65% 30.41 in 10.0 mi Variable 6.9 mph - N/A   Mostly Cloudy
8:51 AM 38.8 °F 32.1 °F 27.1 °F 63% 30.42 in 10.0 mi West 10.4 mph - N/A   Mostly Cloudy
9:51 AM 41.0 °F 35.2 °F 26.1 °F 55% 30.43 in 10.0 mi West 9.2 mph - 0.06 in   Overcast
10:51 AM 41.0 °F 33.5 °F 25.2 °F 53% 30.44 in 10.0 mi West 13.8 mph 17.3 mph 0.09 in   Mostly Cloudy
11:51 AM 41.9 °F 36.3 °F 25.2 °F 52% 30.44 in 10.0 mi WNW 9.2 mph 25.3 mph 0.07 in   Mostly Cloudy
12:51 PM 41.9 °F 35.0 °F 26.1 °F 53% 30.44 in 10.0 mi WNW 12.7 mph 19.6 mph 0.01 in   Mostly Cloudy
1:51 PM 41.0 °F 34.7 °F 26.1 °F 55% 30.45 in 10.0 mi West 10.4 mph 18.4 mph N/A   Overcast
2:51 PM 39.9 °F 33.4 °F 27.1 °F 60% 30.47 in 10.0 mi West 10.4 mph 17.3 mph N/A   Overcast
3:51 PM 38.8 °F 32.6 °F 27.1 °F 63% 30.49 in 10.0 mi West 9.2 mph 18.4 mph N/A   Overcast
4:51 PM 38.8 °F 32.6 °F 27.1 °F 63% 30.49 in 10.0 mi West 9.2 mph - N/A   Overcast
5:51 PM 37.9 °F 34.4 °F 27.1 °F 65% 30.49 in 10.0 mi Variable 4.6 mph - N/A   Overcast
6:51 PM 37.9 °F 32.1 °F 27.1 °F 65% 30.52 in 10.0 mi West 8.1 mph - N/A   Overcast
7:51 PM 37.9 °F 33.5 °F 26.1 °F 62% 30.58 in 10.0 mi WSW 5.8 mph - N/A   Overcast
8:51 PM 36.9 °F 29.6 °F 26.1 °F 65% 30.61 in 10.0 mi West 10.4 mph 16.1 mph N/A   Overcast
9:51 PM 36.9 °F 30.1 °F 25.2 °F 63% 30.58 in 10.0 mi WNW 9.2 mph - N/A   Mostly Cloudy
10:51 PM 36.0 °F 30.3 °F 25.2 °F 65% 30.58 in 10.0 mi WNW 6.9 mph - N/A   Overcast
11:51 PM 36.0 °F 32.1 °F 24.1 °F 62% 30.58 in 10.0 mi Variable 4.6 mph - N/A   Overcast